Flag for Australia Weather past 2 weeks in Wodonga, Victoria, Australia

Now
52 °F

Cool.


Feels Like: 52 °F
Forecast: 44 / 60 °F
Wind: 1 mph from North

Location: Albury Aeroport Aws

Current Time: Apr 19, 2015 at 2:09:01 AM

Latest Report: Apr 19, 2015 at 12:00 AM


Visibility: N/A

Pressure: 30.02 "Hg

Humidity: 100%

Dew point: 52 °F

Location of WodongaLocation

Historic Weather in Wodonga — Graph

°F

Wodonga temperature yesterday

Maximum temperature yesterday: 66 °F (at 12:00 PM)
Minimum temperature yesterday: 53 °F (at 11:00 PM)
Average temperature yesterday: 62 °F

Past Weeks' High & Low Weather Summary

 TemperatureHumidityPressure
High79 °F (Apr 16, 3:00 PM)100% (Apr 16, 5:00 AM)30.29 "Hg (Apr 16, 5:00 AM)
Low47 °F (Apr 10, 5:00 AM)30% (Apr 8, 3:00 PM)29.65 "Hg (Apr 6, 5:00 PM)
Average62 °F69%30.05 "Hg
* Reported Apr 4 1:00 AM — Midnight between Apr 18 and Apr 19, Wodonga, Weather by CustomWeather, © 2015

Note: Actual official high and low records may vary slightly from our data, if they occured in-between our weather recording intervals... More about our weather records

Advertising

Wodonga weather history for previous 24 hours

 ConditionsComfort  
Time TempWeatherWind HumidityBarometerVisibility
12:00 AM
Sun, Apr 19
52 °FCool.1 mph100%30.02 "HgN/A
11:00 PM
Sat, Apr 18
53 °FCool.2 mph99%30.01 "HgN/A
9:00 PM57 °FCool.7 mph91%30.01 "HgN/A
8:00 PM59 °FCool.13 mph91%29.98 "HgN/A
6:00 PM62 °FOvercast.10 mph94%29.92 "HgN/A
5:00 PM62 °FMild.7 mph98%29.90 "HgN/A
3:00 PM63 °FFog.8 mph98%29.89 "HgN/A
2:00 PM63 °FMild.6 mph100%29.90 "HgN/A
12:00 PM66 °FOvercast.8 mph87%29.93 "HgN/A
11:00 AM65 °FMild.9 mph92%29.96 "HgN/A
9:00 AM64 °FOvercast.6 mph94%30.00 "HgN/A
8:00 AM63 °FMild.3 mph100%30.00 "HgN/A
6:00 AM62 °FLow clouds.6 mph100%29.96 "HgN/A
5:00 AM62 °FCool.6 mph100%29.96 "HgN/A
3:00 AM62 °FFog.5 mph100%29.97 "Hg5 mi
2:00 AM62 °FMild.5 mph100%29.99 "HgN/A
Weather by CustomWeather, © 2015

See weather overviewHow to use our weather pages